Hourly Weather Roundup
Issued by NWS

Home | Current Version | Previous Version | Text Only | Print | Product List | Glossary On
Versions: 1 2 3 4 5 6 7 8 9 10 11 12 13 14 15 16 17 18 19 20 21 22 23 24 25 26 27 28 29 30 31 32 33 34 35 36 37 38 39 40 41 42 43 44 45 46 47 48 49 50
458
NZUS43 KILX 172110
HWRCRS

NWR Hourly Weather Roundup
National Weather Service Lincoln IL
300 PM CST SAT FEB 17 2018


CITY           SKY/WX    TMP DP  RH WIND       PRES   REMARKS
Champaign      SNOW      33  33 100 S12       29.96F VSB 1/2 WCI  24
Lawrenceville  MIX PCPN  37 N/A N/A SW9       30.04R WCI  30
Peoria         CLOUDY    33  31  92 SW13      29.97R WCI  24
Springfield    CLOUDY    37  35  92 SW13      29.98R WCI  29
$$


CITY           SKY/WX    TMP DP  RH WIND       PRES   REMARKS
Bloomington    LGT SNOW  33  31  92 SW12      29.95R VSB 3/4 WCI  24
Danville       LGT SNOW  32  32  99 S9        29.95S WCI  25
Decatur        CLOUDY    34  33  96 SW15      29.97R FOG     WCI  24
Effingham      LGT RAIN  37  37 100 S8        30.02S WCI  30
Flora          DRIZZLE   37  36  95 S7        30.03S WCI  32
Galesburg      CLOUDY    34  32  92 W17G23    29.96R WCI  23
Jacksonville   CLOUDY    36  34  93 SW15G21   30.00R FOG     WCI  26
Lacon          LGT SNOW  32  32 100 SW8       29.94R WCI  25
La Salle       LGT SNOW  31  30  95 SW12      29.93R VSB 1   WCI  22
Lincoln        LGT RAIN  34  34 100 SW7       29.97R WCI  28
Litchfield     CLOUDY    34  34  99 SW10      30.01R FOG     WCI  26

CITY           SKY/WX    TMP DP  RH WIND       PRES   REMARKS
Macomb         CLOUDY    35  33  94 W16       29.99R WCI  25
Mattoon        MIX PCPN  34  33  96 S10       29.98R FOG     WCI  26
Moline         CLOUDY    33  28  81 W15       29.94R WCI  23
Olney          DRIZZLE   35  33  92 S6        30.04R WCI  30
Paris          MIX PCPN  33  33  99 S7        30.00S WCI  27
Pontiac        SNOW      33  32  98 SW9       29.95R VSB 1/2 WCI  25
Quincy         CLOUDY    38  34  85 W12       30.00R WCI  30
Rantoul        LGT SNOW  34  34  99 SW8       29.96R VSB 3/4 WCI  27
Robinson       LGT RAIN  34  34  99 SW8       30.04R WCI  28
Taylorville    CLOUDY    34  34  99 SW12      30.00R FOG     WCI  25
Terre Haute    LGT SNOW  35  34  96 SW9       30.01R FOG     WCI  28
$$


CITY           SKY/WX    TMP DP  RH WIND       PRES   REMARKS
Burlington     CLOUDY    36  29  75 W10       29.98R WCI  28
Chicago        LGT SNOW  34  27  75 SW14      29.92S WCI  25
Des Moines     MOSUNNY   39  29  67 NW16      30.02R WCI  30
Evansville     CLOUDY    36  36 100 CALM      30.05R FOG
Indianapolis   LGT RAIN  35  33  92 SW8       29.99R WCI  29
Kansas City    MOSUNNY   53  20  27 NW14      30.10R
Milwaukee      LGT SNOW  32  26  78 W8        29.92R WCI  25
St Louis       CLOUDY    41  39  93 W17G23    30.03R WCI  32
$$





USA.gov is the U.S. government's official web portal to all federal, state and local government web resources and services.